Regional Weather Roundup
Issued by NWS

Home | Current Version | Previous Version | Graphics & Text | Print | Product List | Glossary On
Versions: 1 2 3 4 5 6 7 8 9 10 11 12 13 14 15 16 17 18 19 20 21 22 23 24 25 26 27 28 29 30 31 32 33 34 35 36 37 38 39 40 41 42 43 44 45 46 47 48 49 50
000
ASUS43 KLMK 300502
RWRKY
KENTUCKY REGIONAL WEATHER ROUNDUP
NATIONAL WEATHER SERVICE LOUISVILLE KY
100 AM EDT WED JUL 30 2014

NOTE "FAIR" INDICATES FEW OR NO CLOUDS BELOW 12,000 FEET
WITH NO SIGNIFICANT WEATHER AND/OR OBSTRUCTIONS TO VISIBILITY.

KYZ001>023-026-027-061>063-070>075-300600-
WESTERN AND SOUTH CENTRAL KENTUCKY

CITY           SKY/WX    TMP DP  RH WIND       PRES   REMARKS
PADUCAH        CLEAR     60  56  86 SW3       30.09S
HENDERSON      CLEAR     59  54  82 SW3       30.09R
OWENSBORO      CLEAR     61  57  86 CALM      30.09S
HOPKINSVILLE   CLEAR     60  54  79 CALM      30.10S
BOWLING GREEN  CLEAR     63  56  78 CALM      30.10R
GLASGOW        CLEAR     59  58  97 CALM      30.10S
$$

KYZ024-025-028>034-038-045-046-053-300600-
NORTH CENTRAL KENTUCKY

CITY           SKY/WX    TMP DP  RH WIND       PRES   REMARKS
LOUISVILLE/SDF PTCLDY    67  59  75 S5        30.07S
LOUISVILLE/LOU PTCLDY    66  58  75 CALM      30.08R
FORT KNOX      MOCLDY    60  59  97 CALM      30.08S
$$

KYZ035>037-039>044-047>052-055>060-089>105-300600-
NORTHEAST KENTUCKY

CITY           SKY/WX    TMP DP  RH WIND       PRES   REMARKS
LEXINGTON      CLEAR     58  54  86 S5        30.09S
COVINGTON      PTCLDY    62  56  80 SW5       30.06S
FRANKFORT      MOCLDY    59  57  93 CALM      30.08R
$$

KYZ054-064>069-076>088-106>120-300600-
SOUTHEAST KENTUCKY

CITY           SKY/WX    TMP DP  RH WIND       PRES   REMARKS
JACKSON        CLEAR     59  54  83 CALM      30.11R
LONDON         CLEAR     57  54  89 CALM      30.12S
SOMERSET       CLEAR     55  55 100 CALM      30.12S
MIDDLESBORO    CLEAR     56  54  94 CALM      30.13R
MONTICELLO     CLEAR     55  54  97 CALM      30.13R
$$



USA.gov is the U.S. government's official web portal to all federal, state and local government web resources and services.